Time,TemperatureF,DewpointF,PressureIn,WindDirection,WindDirectionDegrees,WindSpeedMPH,WindSpeedGustMPH,Humidity,HourlyPrecipIn,Conditions,Clouds,dailyrainin,SolarRadiationWatts/m^2,SoftwareType,DateUTC
2013-03-08 00:00:00,32.9,21.3,30.24,WNW,287,6.0,6.0,62,0.00,,,0.00,0,Wunderground v.1.15,2013-03-08 05:00:00,
2013-03-08 00:02:00,32.8,21.6,30.24,NNW,336,5.0,6.0,63,0.00,,,0.00,0,Wunderground v.1.15,2013-03-08 05:02:00,
2013-03-08 00:05:00,32.8,21.6,30.24,WNW,286,5.0,9.0,63,0.00,,,0.00,0,Wunderground v.1.15,2013-03-08 05:05:00,
2013-03-08 00:11:00,32.8,21.6,30.24,WNW,288,5.0,8.0,63,0.00,,,0.00,0,Wunderground v.1.15,2013-03-08 05:11:00,
2013-03-08 00:16:00,32.6,21.4,30.24,NW,306,5.0,8.0,63,0.00,,,0.00,0,Wunderground v.1.15,2013-03-08 05:16:00,
2013-03-08 00:21:00,32.5,21.7,30.24,NW,311,4.0,5.0,64,0.00,,,0.00,0,Wunderground v.1.15,2013-03-08 05:21:00,
2013-03-08 00:27:00,32.4,21.6,30.24,WNW,300,5.0,6.0,64,0.00,,,0.00,0,Wunderground v.1.15,2013-03-08 05:27:00,
2013-03-08 00:32:00,32.3,21.5,30.24,WNW,303,5.0,6.0,64,0.00,,,0.00,0,Wunderground v.1.15,2013-03-08 05:32:00,
2013-03-08 00:38:00,32.2,21.4,30.24,NW,311,4.0,6.0,64,0.00,,,0.00,0,Wunderground v.1.15,2013-03-08 05:38:00,
2013-03-08 00:44:00,32.1,21.7,30.24,WNW,292,4.0,7.0,65,0.00,,,0.00,0,Wunderground v.1.15,2013-03-08 05:44:00,
2013-03-08 00:50:00,32.0,21.6,30.24,NW,311,4.0,6.0,65,0.00,,,0.00,0,Wunderground v.1.15,2013-03-08 05:50:00,
2013-03-08 00:56:00,32.0,21.6,30.24,West,273,5.0,8.0,65,0.00,,,0.00,0,Wunderground v.1.15,2013-03-08 05:56:00,
2013-03-08 01:02:00,31.9,21.5,30.25,NW,314,5.0,6.0,65,0.00,,,0.00,0,Wunderground v.1.15,2013-03-08 06:02:00,
2013-03-08 01:07:00,31.7,21.6,30.24,NW,313,5.0,6.0,66,0.00,,,0.00,0,Wunderground v.1.15,2013-03-08 06:07:00,
2013-03-08 01:13:00,31.7,21.6,30.25,WNW,301,4.0,6.0,66,0.00,,,0.00,0,Wunderground v.1.15,2013-03-08 06:13:00,
2013-03-08 01:19:00,31.7,21.6,30.25,NNW,333,6.0,9.0,66,0.00,,,0.00,0,Wunderground v.1.15,2013-03-08 06:19:00,
2013-03-08 01:24:00,31.7,21.6,30.25,WNW,287,6.0,8.0,66,0.00,,,0.00,0,Wunderground v.1.15,2013-03-08 06:24:00,
2013-03-08 01:30:00,31.6,21.5,30.25,NW,305,5.0,5.0,66,0.00,,,0.00,0,Wunderground v.1.15,2013-03-08 06:30:00,
2013-03-08 01:36:00,31.5,21.8,30.24,NNW,329,4.0,6.0,67,0.00,,,0.00,0,Wunderground v.1.15,2013-03-08 06:36:00,
2013-03-08 01:41:00,31.4,21.7,30.24,WNW,284,4.0,6.0,67,0.00,,,0.00,0,Wunderground v.1.15,2013-03-08 06:41:00,
2013-03-08 01:47:00,31.4,22.1,30.24,WNW,282,5.0,6.0,68,0.00,,,0.00,0,Wunderground v.1.15,2013-03-08 06:47:00,
2013-03-08 01:52:00,31.3,22.0,30.24,NNW,332,4.0,5.0,68,0.00,,,0.00,0,Wunderground v.1.15,2013-03-08 06:52:00,
2013-03-08 01:58:00,31.3,22.0,30.25,WNW,294,4.0,5.0,68,0.00,,,0.00,0,Wunderground v.1.15,2013-03-08 06:58:00,
2013-03-08 02:03:00,31.2,21.9,30.25,NW,323,3.0,4.0,68,0.00,,,0.00,0,Wunderground v.1.15,2013-03-08 07:03:00,
2013-03-08 02:09:00,31.2,21.9,30.25,WNW,292,2.0,4.0,68,0.00,,,0.00,0,Wunderground v.1.15,2013-03-08 07:09:00,
2013-03-08 02:15:00,31.2,22.2,30.24,NW,314,3.0,6.0,69,0.00,,,0.00,0,Wunderground v.1.15,2013-03-08 07:15:00,
2013-03-08 02:21:00,31.2,21.9,30.24,NW,319,4.0,4.0,68,0.00,,,0.00,0,Wunderground v.1.15,2013-03-08 07:21:00,
2013-03-08 02:26:00,31.2,22.2,30.24,West,279,3.0,4.0,69,0.00,,,0.00,0,Wunderground v.1.15,2013-03-08 07:26:00,
2013-03-08 02:32:00,31.2,22.2,30.24,NW,308,3.0,4.0,69,0.00,,,0.00,0,Wunderground v.1.15,2013-03-08 07:32:00,
2013-03-08 02:37:00,31.2,21.9,30.24,NW,304,3.0,5.0,68,0.00,,,0.00,0,Wunderground v.1.15,2013-03-08 07:37:00,
2013-03-08 02:43:00,31.3,22.0,30.23,NW,304,3.0,3.0,68,0.00,,,0.00,0,Wunderground v.1.15,2013-03-08 07:43:00,
2013-03-08 02:48:00,31.4,22.1,30.24,NNW,331,3.0,4.0,68,0.00,,,0.00,0,Wunderground v.1.15,2013-03-08 07:48:00,
2013-03-08 02:54:00,31.4,22.1,30.23,NNW,338,3.0,4.0,68,0.00,,,0.00,0,Wunderground v.1.15,2013-03-08 07:54:00,
2013-03-08 02:59:00,31.5,22.1,30.23,WNW,292,3.0,5.0,68,0.00,,,0.00,0,Wunderground v.1.15,2013-03-08 07:59:00,
2013-03-08 03:05:00,31.6,22.2,30.23,WNW,288,4.0,6.0,68,0.00,,,0.00,0,Wunderground v.1.15,2013-03-08 08:05:00,
2013-03-08 03:11:00,31.7,22.3,30.23,North,360,5.0,5.0,68,0.00,,,0.00,0,Wunderground v.1.15,2013-03-08 08:11:00,
2013-03-08 03:17:00,31.8,22.1,30.23,NW,319,4.0,5.0,67,0.00,,,0.00,0,Wunderground v.1.15,2013-03-08 08:17:00,
2013-03-08 03:22:00,31.9,22.2,30.23,NNW,343,4.0,5.0,67,0.00,,,0.00,0,Wunderground v.1.15,2013-03-08 08:22:00,
2013-03-08 03:28:00,32.0,22.3,30.23,NNW,345,5.0,6.0,67,0.00,,,0.00,0,Wunderground v.1.15,2013-03-08 08:28:00,
2013-03-08 03:34:00,32.1,22.4,30.23,WNW,292,4.0,8.0,67,0.00,,,0.00,0,Wunderground v.1.15,2013-03-08 08:34:00,
2013-03-08 03:40:00,32.2,22.5,30.23,West,278,3.0,5.0,67,0.00,,,0.00,0,Wunderground v.1.15,2013-03-08 08:40:00,
2013-03-08 03:46:00,32.4,22.3,30.23,WNW,289,5.0,8.0,66,0.00,,,0.00,0,Wunderground v.1.15,2013-03-08 08:46:00,
2013-03-08 03:52:00,32.5,22.4,30.23,NW,308,6.0,8.0,66,0.00,,,0.00,0,Wunderground v.1.15,2013-03-08 08:52:00,
2013-03-08 03:57:00,32.5,22.4,30.23,NNW,329,6.0,8.0,66,0.00,,,0.00,0,Wunderground v.1.15,2013-03-08 08:57:00,
2013-03-08 04:03:00,32.6,22.1,30.23,NNW,327,8.0,13.0,65,0.00,,,0.00,0,Wunderground v.1.15,2013-03-08 09:03:00,
2013-03-08 04:09:00,32.7,22.2,30.23,NW,311,8.0,13.0,65,0.00,,,0.00,0,Wunderground v.1.15,2013-03-08 09:09:00,
2013-03-08 04:14:00,32.6,22.1,30.23,WNW,296,6.0,9.0,65,0.00,,,0.00,0,Wunderground v.1.15,2013-03-08 09:14:00,
2013-03-08 04:20:00,32.6,22.5,30.23,NW,311,5.0,5.0,66,0.00,,,0.00,0,Wunderground v.1.15,2013-03-08 09:20:00,
2013-03-08 04:26:00,32.6,22.1,30.23,North,5,5.0,9.0,65,0.00,,,0.00,0,Wunderground v.1.15,2013-03-08 09:26:00,
2013-03-08 04:31:00,32.6,21.8,30.23,North,360,7.0,11.0,64,0.00,,,0.00,0,Wunderground v.1.15,2013-03-08 09:31:00,
2013-03-08 04:37:00,32.4,22.3,30.23,NE,46,10.0,16.0,66,0.00,,,0.00,0,Wunderground v.1.15,2013-03-08 09:37:00,
2013-03-08 04:43:00,32.1,22.7,30.24,WNW,292,10.0,10.0,68,0.00,,,0.00,0,Wunderground v.1.15,2013-03-08 09:43:00,
2013-03-08 04:49:00,31.5,23.5,30.24,NW,316,9.0,11.0,72,0.00,,,0.00,0,Wunderground v.1.15,2013-03-08 09:49:00,
2013-03-08 04:54:00,30.9,24.5,30.24,NW,317,8.0,16.0,77,0.00,,,0.00,0,Wunderground v.1.15,2013-03-08 09:54:00,
2013-03-08 05:00:00,30.5,24.8,30.24,NNW,333,7.0,7.0,79,0.00,,,0.00,0,Wunderground v.1.15,2013-03-08 10:00:00,
2013-03-08 05:06:00,30.2,25.1,30.24,NNW,328,6.0,10.0,81,0.00,,,0.00,0,Wunderground v.1.15,2013-03-08 10:06:00,
2013-03-08 05:11:00,30.0,25.2,30.24,NW,313,5.0,6.0,82,0.00,,,0.00,0,Wunderground v.1.15,2013-03-08 10:11:00,
2013-03-08 05:17:00,30.0,25.2,30.24,WNW,290,5.0,6.0,82,0.00,,,0.00,0,Wunderground v.1.15,2013-03-08 10:17:00,
2013-03-08 05:22:00,30.1,25.3,30.24,NW,319,5.0,6.0,82,0.00,,,0.00,0,Wunderground v.1.15,2013-03-08 10:22:00,
2013-03-08 05:28:00,30.1,25.0,30.24,NW,314,6.0,9.0,81,0.00,,,0.00,0,Wunderground v.1.15,2013-03-08 10:28:00,
2013-03-08 05:33:00,30.1,24.7,30.24,NW,306,6.0,6.0,80,0.00,,,0.00,0,Wunderground v.1.15,2013-03-08 10:33:00,
2013-03-08 05:39:00,30.2,24.5,30.24,NW,317,6.0,10.0,79,0.00,,,0.00,0,Wunderground v.1.15,2013-03-08 10:39:00,
2013-03-08 05:45:00,30.4,24.4,30.24,WNW,293,6.0,8.0,78,0.00,,,0.00,0,Wunderground v.1.15,2013-03-08 10:45:00,
2013-03-08 05:50:00,30.5,24.1,30.24,NW,321,6.0,9.0,77,0.00,,,0.00,0,Wunderground v.1.15,2013-03-08 10:50:00,
2013-03-08 05:56:00,30.6,23.9,30.24,WNW,288,7.0,12.0,76,0.00,,,0.00,0,Wunderground v.1.15,2013-03-08 10:56:00,
2013-03-08 06:01:00,30.8,23.8,30.25,WNW,303,8.0,9.0,75,0.00,,,0.00,0,Wunderground v.1.15,2013-03-08 11:01:00,
2013-03-08 06:07:00,30.8,23.8,30.25,West,271,7.0,9.0,75,0.00,,,0.00,0,Wunderground v.1.15,2013-03-08 11:07:00,
2013-03-08 06:13:00,30.9,23.6,30.25,NW,324,7.0,8.0,74,0.00,,,0.00,0,Wunderground v.1.15,2013-03-08 11:13:00,
2013-03-08 06:18:00,31.0,23.7,30.25,NNW,342,7.0,8.0,74,0.00,,,0.00,0,Wunderground v.1.15,2013-03-08 11:18:00,
2013-03-08 06:24:00,31.0,23.7,30.25,NNW,331,7.0,8.0,74,0.00,,,0.00,0,Wunderground v.1.15,2013-03-08 11:24:00,
2013-03-08 06:29:00,31.0,23.7,30.25,WNW,296,6.0,6.0,74,0.00,,,0.00,0,Wunderground v.1.15,2013-03-08 11:29:00,
2013-03-08 06:35:00,31.1,23.8,30.26,NW,317,6.0,7.0,74,0.00,,,0.00,0,Wunderground v.1.15,2013-03-08 11:35:00,
2013-03-08 06:40:00,31.1,23.5,30.26,WNW,286,6.0,7.0,73,0.00,,,0.00,0,Wunderground v.1.15,2013-03-08 11:40:00,
2013-03-08 06:46:00,31.1,23.5,30.26,WNW,298,6.0,7.0,73,0.00,,,0.00,5,Wunderground v.1.15,2013-03-08 11:46:00,
2013-03-08 06:52:00,31.1,23.8,30.26,NW,315,5.0,6.0,74,0.00,,,0.00,9,Wunderground v.1.15,2013-03-08 11:52:00,
2013-03-08 06:59:00,31.2,23.5,30.27,NW,320,5.0,9.0,73,0.00,,,0.00,18,Wunderground v.1.15,2013-03-08 11:59:00,
2013-03-08 07:04:00,31.3,23.3,30.27,West,270,6.0,7.0,72,0.00,,,0.00,23,Wunderground v.1.15,2013-03-08 12:04:00,
2013-03-08 07:10:00,31.4,23.4,30.26,WNW,290,6.0,6.0,72,0.00,,,0.00,23,Wunderground v.1.15,2013-03-08 12:10:00,
2013-03-08 07:16:00,31.5,23.5,30.27,NNW,327,5.0,6.0,72,0.00,,,0.00,33,Wunderground v.1.15,2013-03-08 12:16:00,
2013-03-08 07:22:00,31.6,23.3,30.27,NW,319,3.0,4.0,71,0.00,,,0.00,46,Wunderground v.1.15,2013-03-08 12:22:00,
2013-03-08 07:28:00,31.7,23.4,30.27,NNW,336,4.0,8.0,71,0.00,,,0.00,49,Wunderground v.1.15,2013-03-08 12:28:00,
2013-03-08 07:34:00,31.8,23.1,30.27,NW,304,6.0,9.0,70,0.00,,,0.00,60,Wunderground v.1.15,2013-03-08 12:34:00,
2013-03-08 07:40:00,31.9,22.9,30.27,WNW,284,8.0,8.0,69,0.00,,,0.00,69,Wunderground v.1.15,2013-03-08 12:40:00,
2013-03-08 07:45:00,32.0,23.0,30.27,WNW,298,8.0,9.0,69,0.00,,,0.00,79,Wunderground v.1.15,2013-03-08 12:45:00,
2013-03-08 07:51:00,32.1,23.1,30.28,NW,320,7.0,9.0,69,0.00,,,0.00,79,Wunderground v.1.15,2013-03-08 12:51:00,
2013-03-08 07:57:00,32.2,23.2,30.28,NW,314,7.0,9.0,69,0.00,,,0.00,86,Wunderground v.1.15,2013-03-08 12:57:00,
2013-03-08 08:03:00,32.4,23.0,30.28,NW,316,7.0,8.0,68,0.00,,,0.00,91,Wunderground v.1.15,2013-03-08 13:03:00,
2013-03-08 08:08:00,32.4,23.0,30.28,NNW,332,6.0,9.0,68,0.00,,,0.00,95,Wunderground v.1.15,2013-03-08 13:08:00,
2013-03-08 08:15:00,32.4,22.7,30.28,NW,322,8.0,8.0,67,0.00,,,0.00,86,Wunderground v.1.15,2013-03-08 13:15:00,
2013-03-08 08:20:00,32.4,22.7,30.28,WNW,302,8.0,11.0,67,0.00,,,0.00,86,Wunderground v.1.15,2013-03-08 13:20:00,
2013-03-08 08:26:00,32.5,22.8,30.28,NW,308,8.0,11.0,67,0.00,,,0.00,113,Wunderground v.1.15,2013-03-08 13:26:00,
2013-03-08 08:32:00,32.6,22.8,30.28,WNW,289,7.0,11.0,67,0.00,,,0.00,114,Wunderground v.1.15,2013-03-08 13:32:00,
2013-03-08 08:38:00,32.6,22.8,30.29,NNW,327,9.0,14.0,67,0.00,,,0.00,81,Wunderground v.1.15,2013-03-08 13:38:00,
2013-03-08 08:43:00,32.7,22.9,30.29,West,279,8.0,9.0,67,0.00,,,0.00,84,Wunderground v.1.15,2013-03-08 13:43:00,
2013-03-08 08:48:00,32.8,22.7,30.29,NW,313,7.0,14.0,66,0.00,,,0.00,127,Wunderground v.1.15,2013-03-08 13:48:00,
2013-03-08 08:54:00,32.9,22.8,30.29,West,275,9.0,10.0,66,0.00,,,0.00,134,Wunderground v.1.15,2013-03-08 13:54:00,
2013-03-08 09:00:00,33.0,22.9,30.29,NW,321,9.0,12.0,66,0.00,,,0.00,104,Wunderground v.1.15,2013-03-08 14:00:00,
2013-03-08 09:06:00,33.0,22.9,30.29,WNW,290,9.0,13.0,66,0.00,,,0.00,97,Wunderground v.1.15,2013-03-08 14:06:00,
2013-03-08 09:11:00,33.0,22.5,30.29,NW,311,8.0,9.0,65,0.00,,,0.00,113,Wunderground v.1.15,2013-03-08 14:11:00,
2013-03-08 09:16:00,33.1,23.0,30.29,NW,324,8.0,9.0,66,0.00,,,0.00,121,Wunderground v.1.15,2013-03-08 14:16:00,
2013-03-08 09:22:00,33.3,23.2,30.29,NNW,338,7.0,10.0,66,0.00,,,0.00,121,Wunderground v.1.15,2013-03-08 14:22:00,
2013-03-08 09:27:00,33.4,23.3,30.29,West,270,7.0,14.0,66,0.00,,,0.00,123,Wunderground v.1.15,2013-03-08 14:27:00,
2013-03-08 09:33:00,33.4,22.9,30.30,NNW,341,8.0,11.0,65,0.00,,,0.00,116,Wunderground v.1.15,2013-03-08 14:33:00,
2013-03-08 09:38:00,33.5,23.0,30.30,NW,325,8.0,18.0,65,0.00,,,0.00,137,Wunderground v.1.15,2013-03-08 14:38:00,
2013-03-08 09:44:00,33.5,23.4,30.30,NNW,342,8.0,11.0,66,0.00,,,0.00,137,Wunderground v.1.15,2013-03-08 14:44:00,
2013-03-08 09:50:00,33.8,23.3,30.29,NNW,330,7.0,8.0,65,0.00,,,0.00,213,Wunderground v.1.15,2013-03-08 14:50:00,
2013-03-08 09:56:00,33.8,23.6,30.30,WNW,296,7.0,16.0,66,0.00,,,0.00,185,Wunderground v.1.15,2013-03-08 14:56:00,
2013-03-08 10:02:00,33.9,23.7,30.29,NW,304,8.0,13.0,66,0.00,,,0.00,255,Wunderground v.1.15,2013-03-08 15:02:00,
2013-03-08 10:07:00,34.1,23.6,30.29,WNW,284,8.0,13.0,65,0.00,,,0.00,325,Wunderground v.1.15,2013-03-08 15:07:00,
2013-03-08 10:12:00,34.4,23.8,30.29,NW,316,8.0,13.0,65,0.00,,,0.00,424,Wunderground v.1.15,2013-03-08 15:12:00,
2013-03-08 10:18:00,34.6,24.0,30.29,NW,309,8.0,13.0,65,0.00,,,0.00,257,Wunderground v.1.15,2013-03-08 15:18:00,
2013-03-08 10:23:00,34.8,23.9,30.29,NNE,13,7.0,12.0,64,0.00,,,0.00,283,Wunderground v.1.15,2013-03-08 15:23:00,
2013-03-08 10:29:00,35.0,24.0,30.29,NW,319,8.0,13.0,64,0.00,,,0.00,264,Wunderground v.1.15,2013-03-08 15:29:00,
2013-03-08 10:35:00,35.2,24.2,30.28,NNW,333,9.0,10.0,64,0.00,,,0.00,313,Wunderground v.1.15,2013-03-08 15:35:00,
2013-03-08 10:41:00,35.8,24.8,30.29,NW,321,7.0,8.0,64,0.00,,,0.00,348,Wunderground v.1.15,2013-03-08 15:41:00,
2013-03-08 10:46:00,36.1,24.7,30.29,NW,306,7.0,12.0,63,0.00,,,0.00,343,Wunderground v.1.15,2013-03-08 15:46:00,
2013-03-08 10:52:00,36.3,24.9,30.28,WNW,282,9.0,16.0,63,0.00,,,0.00,417,Wunderground v.1.15,2013-03-08 15:52:00,
2013-03-08 10:57:00,36.7,25.7,30.28,NNW,346,10.0,16.0,64,0.00,,,0.00,735,Wunderground v.1.15,2013-03-08 15:57:00,
2013-03-08 11:03:00,37.5,26.4,30.28,NW,318,8.0,9.0,64,0.00,,,0.00,596,Wunderground v.1.15,2013-03-08 16:03:00,
2013-03-08 11:08:00,37.8,25.5,30.28,NW,316,9.0,12.0,61,0.00,,,0.00,889,Wunderground v.1.15,2013-03-08 16:08:00,
2013-03-08 11:14:00,38.1,25.8,30.28,NW,306,10.0,11.0,61,0.00,,,0.00,738,Wunderground v.1.15,2013-03-08 16:14:00,
2013-03-08 11:20:00,37.9,25.2,30.28,NW,325,10.0,13.0,60,0.00,,,0.00,381,Wunderground v.1.15,2013-03-08 16:20:00,
2013-03-08 11:26:00,37.9,25.2,30.28,NW,321,13.0,19.0,60,0.00,,,0.00,933,Wunderground v.1.15,2013-03-08 16:26:00,
2013-03-08 11:32:00,38.4,25.7,30.28,NW,321,13.0,16.0,60,0.00,,,0.00,649,Wunderground v.1.15,2013-03-08 16:32:00,
2013-03-08 11:37:00,38.9,26.2,30.28,NNW,348,10.0,16.0,60,0.00,,,0.00,738,Wunderground v.1.15,2013-03-08 16:37:00,
2013-03-08 11:43:00,39.4,26.2,30.28,NNW,333,9.0,10.0,59,0.00,,,0.00,679,Wunderground v.1.15,2013-03-08 16:43:00,
2013-03-08 11:49:00,39.2,25.6,30.28,NNW,337,9.0,15.0,58,0.00,,,0.00,680,Wunderground v.1.15,2013-03-08 16:49:00,
2013-03-08 11:55:00,39.3,25.7,30.28,NW,304,10.0,16.0,58,0.00,,,0.00,575,Wunderground v.1.15,2013-03-08 16:55:00,
2013-03-08 12:00:00,39.4,26.2,30.28,WNW,293,12.0,16.0,59,0.00,,,0.00,482,Wunderground v.1.15,2013-03-08 17:00:00,
2013-03-08 12:06:00,40.1,26.1,30.28,NW,310,12.0,18.0,57,0.00,,,0.00,772,Wunderground v.1.15,2013-03-08 17:06:00,
2013-03-08 12:11:00,39.8,25.8,30.28,NNW,327,13.0,15.0,57,0.00,,,0.00,863,Wunderground v.1.15,2013-03-08 17:11:00,
2013-03-08 12:17:00,40.2,26.2,30.27,NW,310,13.0,23.0,57,0.00,,,0.00,770,Wunderground v.1.15,2013-03-08 17:17:00,
2013-03-08 12:22:00,40.7,26.2,30.27,NW,304,12.0,14.0,56,0.00,,,0.00,886,Wunderground v.1.15,2013-03-08 17:22:00,
2013-03-08 12:28:00,41.3,26.3,30.27,NW,315,10.0,14.0,55,0.00,,,0.00,759,Wunderground v.1.15,2013-03-08 17:28:00,
2013-03-08 12:33:00,40.9,26.4,30.27,NNW,328,11.0,14.0,56,0.00,,,0.00,889,Wunderground v.1.15,2013-03-08 17:33:00,
2013-03-08 12:39:00,40.8,25.9,30.27,NW,304,13.0,24.0,55,0.00,,,0.00,606,Wunderground v.1.15,2013-03-08 17:39:00,
2013-03-08 12:45:00,41.2,26.7,30.27,WNW,301,13.0,15.0,56,0.00,,,0.00,1109,Wunderground v.1.15,2013-03-08 17:45:00,
2013-03-08 12:51:00,41.1,25.7,30.27,NW,323,12.0,14.0,54,0.00,,,0.00,464,Wunderground v.1.15,2013-03-08 17:51:00,
2013-03-08 12:57:00,41.1,26.1,30.26,NW,306,11.0,19.0,55,0.00,,,0.00,336,Wunderground v.1.15,2013-03-08 17:57:00,
2013-03-08 13:02:00,41.0,26.1,30.26,ENE,63,10.0,11.0,55,0.00,,,0.00,371,Wunderground v.1.15,2013-03-08 18:02:00,
2013-03-08 13:07:00,40.7,25.8,30.26,NNW,338,10.0,18.0,55,0.00,,,0.00,329,Wunderground v.1.15,2013-03-08 18:07:00,
2013-03-08 13:13:00,40.7,26.2,30.26,NW,321,11.0,16.0,56,0.00,,,0.00,311,Wunderground v.1.15,2013-03-08 18:13:00,
2013-03-08 13:18:00,40.8,26.3,30.26,NNW,329,9.0,16.0,56,0.00,,,0.00,241,Wunderground v.1.15,2013-03-08 18:18:00,
2013-03-08 13:25:00,40.9,26.0,30.27,NNW,340,8.0,11.0,55,0.00,,,0.00,195,Wunderground v.1.15,2013-03-08 18:25:00,
2013-03-08 13:31:00,40.9,26.4,30.27,NNW,348,8.0,15.0,56,0.00,,,0.00,197,Wunderground v.1.15,2013-03-08 18:31:00,
2013-03-08 13:36:00,40.8,26.3,30.27,NW,324,8.0,15.0,56,0.00,,,0.00,179,Wunderground v.1.15,2013-03-08 18:36:00,
2013-03-08 13:43:00,40.7,25.8,30.27,NW,325,9.0,14.0,55,0.00,,,0.00,178,Wunderground v.1.15,2013-03-08 18:43:00,
2013-03-08 13:49:00,40.6,25.7,30.27,WNW,294,10.0,16.0,55,0.00,,,0.00,192,Wunderground v.1.15,2013-03-08 18:49:00,
2013-03-08 13:55:00,40.6,26.1,30.27,NNW,327,10.0,12.0,56,0.00,,,0.00,195,Wunderground v.1.15,2013-03-08 18:55:00,
2013-03-08 14:00:00,40.6,25.7,30.27,WNW,302,10.0,10.0,55,0.00,,,0.00,185,Wunderground v.1.15,2013-03-08 19:00:00,
2013-03-08 14:06:00,40.6,26.1,30.27,NW,325,10.0,12.0,56,0.00,,,0.00,186,Wunderground v.1.15,2013-03-08 19:06:00,
2013-03-08 14:12:00,40.6,25.7,30.27,West,277,10.0,11.0,55,0.00,,,0.00,181,Wunderground v.1.15,2013-03-08 19:12:00,
2013-03-08 14:17:00,40.8,26.3,30.27,NW,310,8.0,11.0,56,0.00,,,0.00,243,Wunderground v.1.15,2013-03-08 19:17:00,
2013-03-08 14:23:00,41.1,26.6,30.27,North,5,7.0,14.0,56,0.00,,,0.00,313,Wunderground v.1.15,2013-03-08 19:23:00,
2013-03-08 14:28:00,41.2,25.8,30.27,NW,319,9.0,14.0,54,0.00,,,0.00,287,Wunderground v.1.15,2013-03-08 19:28:00,
2013-03-08 14:33:00,41.4,26.0,30.27,NNW,331,11.0,21.0,54,0.00,,,0.00,274,Wunderground v.1.15,2013-03-08 19:33:00,
2013-03-08 14:39:00,41.6,25.7,30.27,North,355,10.0,21.0,53,0.00,,,0.00,265,Wunderground v.1.15,2013-03-08 19:39:00,
2013-03-08 14:45:00,41.8,26.4,30.27,NW,309,8.0,11.0,54,0.00,,,0.00,265,Wunderground v.1.15,2013-03-08 19:45:00,
2013-03-08 14:51:00,41.9,26.0,30.27,NNW,329,8.0,11.0,53,0.00,,,0.00,269,Wunderground v.1.15,2013-03-08 19:51:00,
2013-03-08 14:56:00,41.9,26.0,30.27,NNW,331,9.0,16.0,53,0.00,,,0.00,271,Wunderground v.1.15,2013-03-08 19:56:00,
2013-03-08 15:02:00,41.8,25.9,30.28,NW,319,10.0,20.0,53,0.00,,,0.00,246,Wunderground v.1.15,2013-03-08 20:02:00,
2013-03-08 15:08:00,42.0,26.1,30.28,NW,312,10.0,20.0,53,0.00,,,0.00,209,Wunderground v.1.15,2013-03-08 20:08:00,
2013-03-08 15:14:00,42.1,25.7,30.28,North,355,9.0,10.0,52,0.00,,,0.00,188,Wunderground v.1.15,2013-03-08 20:14:00,
2013-03-08 15:20:00,42.1,25.7,30.28,North,9,7.0,8.0,52,0.00,,,0.00,200,Wunderground v.1.15,2013-03-08 20:20:00,
2013-03-08 15:26:00,42.0,25.6,30.29,WNW,292,7.0,11.0,52,0.00,,,0.00,183,Wunderground v.1.15,2013-03-08 20:26:00,
2013-03-08 15:32:00,41.9,25.5,30.29,NNW,341,8.0,8.0,52,0.00,,,0.00,169,Wunderground v.1.15,2013-03-08 20:32:00,
2013-03-08 15:37:00,42.0,25.6,30.29,WNW,283,6.0,11.0,52,0.00,,,0.00,172,Wunderground v.1.15,2013-03-08 20:37:00,
2013-03-08 15:43:00,42.0,25.6,30.30,ENE,64,5.0,12.0,52,0.00,,,0.00,137,Wunderground v.1.15,2013-03-08 20:43:00,
2013-03-08 15:49:00,42.0,25.6,30.30,NW,309,6.0,12.0,52,0.00,,,0.00,135,Wunderground v.1.15,2013-03-08 20:49:00,
2013-03-08 15:54:00,41.8,25.0,30.30,NNW,341,7.0,10.0,51,0.00,,,0.00,137,Wunderground v.1.15,2013-03-08 20:54:00,
2013-03-08 16:00:00,41.9,25.1,30.30,NE,46,6.0,6.0,51,0.00,,,0.00,134,Wunderground v.1.15,2013-03-08 21:00:00,
2013-03-08 16:05:00,42.1,25.3,30.30,NW,312,4.0,10.0,51,0.00,,,0.00,123,Wunderground v.1.15,2013-03-08 21:05:00,
2013-03-08 16:11:00,42.0,25.2,30.30,NW,321,5.0,5.0,51,0.00,,,0.00,114,Wunderground v.1.15,2013-03-08 21:11:00,
2013-03-08 16:16:00,42.0,25.2,30.30,NW,304,7.0,12.0,51,0.00,,,0.00,104,Wunderground v.1.15,2013-03-08 21:16:00,
2013-03-08 16:21:00,41.9,25.1,30.31,WNW,296,7.0,9.0,51,0.00,,,0.00,102,Wunderground v.1.15,2013-03-08 21:21:00,
2013-03-08 16:28:00,41.9,25.1,30.31,WNW,301,7.0,9.0,51,0.00,,,0.00,100,Wunderground v.1.15,2013-03-08 21:28:00,
2013-03-08 16:34:00,41.7,25.4,30.31,NW,317,7.0,7.0,52,0.00,,,0.00,97,Wunderground v.1.15,2013-03-08 21:34:00,
2013-03-08 16:40:00,41.6,24.8,30.31,NW,315,8.0,8.0,51,0.00,,,0.00,84,Wunderground v.1.15,2013-03-08 21:40:00,
2013-03-08 16:46:00,41.6,24.8,30.32,NNW,327,8.0,8.0,51,0.00,,,0.00,79,Wunderground v.1.15,2013-03-08 21:46:00,
2013-03-08 16:51:00,41.6,24.8,30.32,North,5,6.0,7.0,51,0.00,,,0.00,69,Wunderground v.1.15,2013-03-08 21:51:00,
2013-03-08 16:57:00,41.5,25.2,30.32,NW,307,6.0,10.0,52,0.00,,,0.00,54,Wunderground v.1.15,2013-03-08 21:57:00,
2013-03-08 17:03:00,41.3,25.0,30.32,NNW,342,7.0,8.0,52,0.00,,,0.00,40,Wunderground v.1.15,2013-03-08 22:03:00,
2013-03-08 17:09:00,41.2,24.9,30.32,NW,321,6.0,10.0,52,0.00,,,0.00,47,Wunderground v.1.15,2013-03-08 22:09:00,
2013-03-08 17:14:00,41.3,25.0,30.33,NNE,15,7.0,9.0,52,0.00,,,0.00,25,Wunderground v.1.15,2013-03-08 22:14:00,
2013-03-08 17:20:00,41.3,25.0,30.33,NW,321,7.0,10.0,52,0.00,,,0.00,25,Wunderground v.1.15,2013-03-08 22:20:00,
2013-03-08 17:25:00,41.4,24.6,30.33,NW,311,7.0,10.0,51,0.00,,,0.00,32,Wunderground v.1.15,2013-03-08 22:25:00,
2013-03-08 17:31:00,41.4,25.1,30.33,NW,304,5.0,6.0,52,0.00,,,0.00,26,Wunderground v.1.15,2013-03-08 22:31:00,
2013-03-08 17:36:00,41.4,24.6,30.33,NW,321,4.0,8.0,51,0.00,,,0.00,26,Wunderground v.1.15,2013-03-08 22:36:00,
2013-03-08 17:42:00,41.3,25.0,30.33,WNW,302,5.0,5.0,52,0.00,,,0.00,23,Wunderground v.1.15,2013-03-08 22:42:00,
2013-03-08 17:48:00,41.1,24.8,30.34,NW,312,4.0,6.0,52,0.00,,,0.00,18,Wunderground v.1.15,2013-03-08 22:48:00,
2013-03-08 17:53:00,41.0,24.7,30.34,ENE,57,5.0,6.0,52,0.00,,,0.00,14,Wunderground v.1.15,2013-03-08 22:53:00,
2013-03-08 17:59:00,41.0,24.7,30.34,NE,34,4.0,7.0,52,0.00,,,0.00,9,Wunderground v.1.15,2013-03-08 22:59:00,
2013-03-08 18:04:00,40.9,24.6,30.34,ENE,74,3.0,6.0,52,0.00,,,0.00,5,Wunderground v.1.15,2013-03-08 23:04:00,
2013-03-08 18:10:00,40.7,24.4,30.35,ESE,104,2.0,2.0,52,0.00,,,0.00,0,Wunderground v.1.15,2013-03-08 23:10:00,
2013-03-08 18:15:00,40.6,24.8,30.35,NW,326,1.0,3.0,53,0.00,,,0.00,0,Wunderground v.1.15,2013-03-08 23:15:00,
2013-03-08 18:20:00,40.4,24.1,30.36,NW,318,3.0,5.0,52,0.00,,,0.00,0,Wunderground v.1.15,2013-03-08 23:20:00,
2013-03-08 18:27:00,40.3,24.1,30.36,NE,56,3.0,5.0,52,0.00,,,0.00,0,Wunderground v.1.15,2013-03-08 23:27:00,
2013-03-08 18:33:00,40.2,24.0,30.36,NNE,32,2.0,3.0,52,0.00,,,0.00,0,Wunderground v.1.15,2013-03-08 23:33:00,
2013-03-08 18:39:00,40.1,24.3,30.37,South,178,1.0,6.0,53,0.00,,,0.00,0,Wunderground v.1.15,2013-03-08 23:39:00,
2013-03-08 18:44:00,40.0,24.2,30.37,East,87,2.0,2.0,53,0.00,,,0.00,0,Wunderground v.1.15,2013-03-08 23:44:00,
2013-03-08 18:50:00,39.8,24.0,30.37,South,182,1.0,5.0,53,0.00,,,0.00,0,Wunderground v.1.15,2013-03-08 23:50:00,
2013-03-08 18:55:00,39.6,23.9,30.37,NNE,16,1.0,5.0,53,0.00,,,0.00,0,Wunderground v.1.15,2013-03-08 23:55:00,
2013-03-08 19:00:00,39.4,23.7,30.38,NNW,339,2.0,4.0,53,0.00,,,0.00,0,Wunderground v.1.15,2013-03-09 00:00:00,
2013-03-08 19:06:00,39.2,23.9,30.38,NE,41,2.0,4.0,54,0.00,,,0.00,0,Wunderground v.1.15,2013-03-09 00:06:00,
2013-03-08 19:11:00,39.0,23.7,30.38,North,350,2.0,5.0,54,0.00,,,0.00,0,Wunderground v.1.15,2013-03-09 00:11:00,
2013-03-08 19:16:00,38.8,23.6,30.38,NNW,344,3.0,5.0,54,0.00,,,0.00,0,Wunderground v.1.15,2013-03-09 00:16:00,
2013-03-08 19:22:00,38.6,23.8,30.38,NNW,328,4.0,5.0,55,0.00,,,0.00,0,Wunderground v.1.15,2013-03-09 00:22:00,
2013-03-08 19:27:00,38.3,23.5,30.38,WNW,299,5.0,9.0,55,0.00,,,0.00,0,Wunderground v.1.15,2013-03-09 00:27:00,
2013-03-08 19:32:00,38.3,23.5,30.38,NW,315,7.0,9.0,55,0.00,,,0.00,0,Wunderground v.1.15,2013-03-09 00:32:00,
2013-03-08 19:37:00,38.2,23.4,30.38,NW,309,7.0,10.0,55,0.00,,,0.00,0,Wunderground v.1.15,2013-03-09 00:37:00,
2013-03-08 19:43:00,38.0,23.7,30.39,NW,311,6.0,7.0,56,0.00,,,0.00,0,Wunderground v.1.15,2013-03-09 00:43:00,
2013-03-08 19:50:00,37.8,23.5,30.39,NW,311,5.0,5.0,56,0.00,,,0.00,0,Wunderground v.1.15,2013-03-09 00:50:00,
2013-03-08 19:56:00,37.7,23.0,30.40,West,263,4.0,8.0,55,0.00,,,0.00,0,Wunderground v.1.15,2013-03-09 00:56:00,
2013-03-08 20:02:00,37.7,23.0,30.40,WNW,284,3.0,4.0,55,0.00,,,0.00,0,Wunderground v.1.15,2013-03-09 01:02:00,
2013-03-08 20:07:00,37.6,22.9,30.40,NNW,327,2.0,4.0,55,0.00,,,0.00,0,Wunderground v.1.15,2013-03-09 01:07:00,
2013-03-08 20:12:00,37.4,22.7,30.41,NNW,341,3.0,4.0,55,0.00,,,0.00,0,Wunderground v.1.15,2013-03-09 01:12:00,
2013-03-08 20:18:00,37.1,22.4,30.41,NNW,338,4.0,6.0,55,0.00,,,0.00,0,Wunderground v.1.15,2013-03-09 01:18:00,
2013-03-08 20:24:00,37.0,22.7,30.41,NW,313,5.0,6.0,56,0.00,,,0.00,0,Wunderground v.1.15,2013-03-09 01:24:00,
2013-03-08 20:30:00,36.9,22.7,30.41,NW,322,4.0,4.0,56,0.00,,,0.00,0,Wunderground v.1.15,2013-03-09 01:30:00,
2013-03-08 20:35:00,36.8,22.6,30.41,WNW,292,3.0,5.0,56,0.00,,,0.00,0,Wunderground v.1.15,2013-03-09 01:35:00,
2013-03-08 20:42:00,36.6,22.4,30.41,NW,314,3.0,4.0,56,0.00,,,0.00,0,Wunderground v.1.15,2013-03-09 01:42:00,
2013-03-08 20:48:00,36.4,22.6,30.41,WNW,297,4.0,5.0,57,0.00,,,0.00,0,Wunderground v.1.15,2013-03-09 01:48:00,
2013-03-08 20:54:00,36.3,22.5,30.41,NNW,329,4.0,5.0,57,0.00,,,0.00,0,Wunderground v.1.15,2013-03-09 01:54:00,
2013-03-08 21:00:00,36.2,22.4,30.41,NW,304,3.0,3.0,57,0.00,,,0.00,0,Wunderground v.1.15,2013-03-09 02:00:00,
2013-03-08 21:06:00,36.1,22.3,30.41,NW,308,3.0,5.0,57,0.00,,,0.00,0,Wunderground v.1.15,2013-03-09 02:06:00,
2013-03-08 21:11:00,36.0,22.2,30.41,NW,311,2.0,3.0,57,0.00,,,0.00,0,Wunderground v.1.15,2013-03-09 02:11:00,
2013-03-08 21:17:00,35.9,22.1,30.41,NW,311,2.0,3.0,57,0.00,,,0.00,0,Wunderground v.1.15,2013-03-09 02:17:00,
2013-03-08 21:23:00,35.8,22.0,30.41,NW,313,1.0,1.0,57,0.00,,,0.00,0,Wunderground v.1.15,2013-03-09 02:23:00,
2013-03-08 21:29:00,35.7,22.4,30.42,NW,313,1.0,2.0,58,0.00,,,0.00,0,Wunderground v.1.15,2013-03-09 02:29:00,
2013-03-08 21:35:00,35.5,22.2,30.42,NW,310,2.0,2.0,58,0.00,,,0.00,0,Wunderground v.1.15,2013-03-09 02:35:00,
2013-03-08 21:40:00,35.4,22.1,30.42,NW,313,1.0,2.0,58,0.00,,,0.00,0,Wunderground v.1.15,2013-03-09 02:40:00,
2013-03-08 21:47:00,35.2,22.3,30.41,NW,315,1.0,2.0,59,0.00,,,0.00,0,Wunderground v.1.15,2013-03-09 02:47:00,
2013-03-08 21:53:00,35.0,22.1,30.41,NW,315,1.0,1.0,59,0.00,,,0.00,0,Wunderground v.1.15,2013-03-09 02:53:00,
2013-03-08 21:59:00,34.9,22.4,30.41,NW,315,0.0,1.0,60,0.00,,,0.00,0,Wunderground v.1.15,2013-03-09 02:59:00,
2013-03-08 22:05:00,34.8,22.3,30.41,NW,315,0.0,1.0,60,0.00,,,0.00,0,Wunderground v.1.15,2013-03-09 03:05:00,
2013-03-08 22:11:00,34.6,22.5,30.42,NW,315,0.0,2.0,61,0.00,,,0.00,0,Wunderground v.1.15,2013-03-09 03:11:00,
2013-03-08 22:17:00,34.3,22.2,30.42,NW,315,1.0,2.0,61,0.00,,,0.00,0,Wunderground v.1.15,2013-03-09 03:17:00,
2013-03-08 22:23:00,34.0,22.3,30.41,NW,321,1.0,2.0,62,0.00,,,0.00,0,Wunderground v.1.15,2013-03-09 03:23:00,
2013-03-08 22:28:00,33.9,22.2,30.41,NW,321,1.0,2.0,62,0.00,,,0.00,0,Wunderground v.1.15,2013-03-09 03:28:00,
2013-03-08 22:34:00,33.7,22.1,30.41,NW,321,2.0,2.0,62,0.00,,,0.00,0,Wunderground v.1.15,2013-03-09 03:34:00,
2013-03-08 22:40:00,33.8,22.1,30.41,NW,321,2.0,2.0,62,0.00,,,0.00,0,Wunderground v.1.15,2013-03-09 03:40:00,
2013-03-08 22:46:00,34.0,22.3,30.41,NW,306,3.0,4.0,62,0.00,,,0.00,0,Wunderground v.1.15,2013-03-09 03:46:00,
2013-03-08 22:52:00,34.0,22.3,30.41,NW,311,2.0,2.0,62,0.00,,,0.00,0,Wunderground v.1.15,2013-03-09 03:52:00,
2013-03-08 22:58:00,34.1,22.0,30.41,NW,316,2.0,4.0,61,0.00,,,0.00,0,Wunderground v.1.15,2013-03-09 03:58:00,
2013-03-08 23:04:00,34.0,22.3,30.42,NW,313,2.0,3.0,62,0.00,,,0.00,0,Wunderground v.1.15,2013-03-09 04:04:00,
2013-03-08 23:10:00,34.0,22.0,30.42,NW,319,2.0,2.0,61,0.00,,,0.00,0,Wunderground v.1.15,2013-03-09 04:10:00,
2013-03-08 23:15:00,34.1,22.0,30.41,NNW,335,2.0,2.0,61,0.00,,,0.00,0,Wunderground v.1.15,2013-03-09 04:15:00,
2013-03-08 23:21:00,34.1,22.4,30.41,NW,326,2.0,2.0,62,0.00,,,0.00,0,Wunderground v.1.15,2013-03-09 04:21:00,
2013-03-08 23:26:00,33.7,22.1,30.41,NNW,338,2.0,2.0,62,0.00,,,0.00,0,Wunderground v.1.15,2013-03-09 04:26:00,
2013-03-08 23:32:00,33.4,22.1,30.41,NNW,338,1.0,2.0,63,0.00,,,0.00,0,Wunderground v.1.15,2013-03-09 04:32:00,
2013-03-08 23:38:00,33.2,22.0,30.41,NNW,338,1.0,2.0,63,0.00,,,0.00,0,Wunderground v.1.15,2013-03-09 04:38:00,
2013-03-08 23:43:00,32.9,22.0,30.41,NNW,338,1.0,2.0,64,0.00,,,0.00,0,Wunderground v.1.15,2013-03-09 04:43:00,
2013-03-08 23:49:00,32.7,22.2,30.41,NNW,338,1.0,2.0,65,0.00,,,0.00,0,Wunderground v.1.15,2013-03-09 04:49:00,
2013-03-08 23:54:00,32.4,22.3,30.41,NNW,344,1.0,2.0,66,0.00,,,0.00,0,Wunderground v.1.15,2013-03-09 04:54:00,